When you browse on this site, cookies collect data to enhance your experience and personalize the content and advertising you see.
Visit our Privacy Policy to learn more. By continuing to use the site, you agree to this use of cookies and data.
  • In Spain
  • List of Countries
  • For 7 days
  • Water Temperature
  • Satellite Maps
  • Weather Map
  • Weather Widgets
  • user-avatar
    Login

    Hourly Weather Koulikoro

    Today, 17 June, Monday

    Time Temperature Precipitation Wind Pressure Humidity
    00:00 +31°C° 0 mm 3 mps 731 mmHg 50%
    01:00 +30°C° 0 mm 3 mps 731 mmHg 56%
    02:00 +30°C° 0 mm 3 mps 730 mmHg 61%
    03:00 +29°C° 0 mm 3 mps 730 mmHg 64%
    04:00 +29°C° 0 mm 2 mps 730 mmHg 66%
    05:00 +29°C° 0 mm 1 mps 730 mmHg 68%
    06:00 +30°C° 0 mm 2 mps 731 mmHg 61%
    07:00 +33°C° 0 mm 3 mps 731 mmHg 54%
    08:00 +35°C° 0 mm 3 mps 732 mmHg 48%
    09:00 +36°C° 0 mm 3 mps 731 mmHg 42%
    10:00 +38°C° 0 mm 3 mps 731 mmHg 35%
    11:00 +40°C° 0 mm 3 mps 731 mmHg 29%
    12:00 +42°C° 0 mm 3 mps 730 mmHg 27%
    13:00 +43°C° 0 mm 3 mps 730 mmHg 24%
    14:00 +44°C° 0 mm 3 mps 729 mmHg 21%
    15:00 +43°C° 0 mm 3 mps 729 mmHg 22%
    16:00 +43°C° 0 mm 3 mps 729 mmHg 22%
    17:00 +42°C° 0 mm 4 mps 729 mmHg 23%
    18:00 +41°C° 0 mm 4 mps 729 mmHg 26%
    19:00 +39°C° 0 mm 5 mps 730 mmHg 28%
    20:00 +37°C° 0 mm 5 mps 730 mmHg 31%
    21:00 +37°C° 0 mm 4 mps 730 mmHg 31%
    22:00 +36°C° 0 mm 3 mps 731 mmHg 32%
    23:00 +35°C° 0 mm 1 mps 731 mmHg 32%

    Tomorrow, 18 June, Tuesday

    Time Temperature Precipitation Wind Pressure Humidity
    00:00 +35°C° 0 mm 2 mps 730 mmHg 35%
    01:00 +35°C° 0 mm 2 mps 730 mmHg 38%
    02:00 +34°C° 0 mm 2 mps 730 mmHg 42%
    03:00 +34°C° 0 mm 2 mps 730 mmHg 44%
    04:00 +32°C° 0 mm 2 mps 730 mmHg 47%
    05:00 +32°C° 0 mm 2 mps 730 mmHg 49%
    06:00 +34°C° 0 mm 3 mps 731 mmHg 48%
    07:00 +35°C° 0 mm 3 mps 731 mmHg 46%
    08:00 +36°C° 0 mm 4 mps 732 mmHg 44%
    09:00 +38°C° 0 mm 3 mps 731 mmHg 40%
    10:00 +39°C° 0 mm 3 mps 731 mmHg 35%
    11:00 +42°C° 0 mm 3 mps 731 mmHg 31%
    12:00 +42°C° 0 mm 2 mps 730 mmHg 28%
    13:00 +43°C° 0 mm 2 mps 730 mmHg 24%
    14:00 +44°C° 0 mm 1 mps 729 mmHg 21%
    15:00 +43°C° 0 mm 2 mps 729 mmHg 21%
    16:00 +43°C° 0 mm 2 mps 729 mmHg 21%
    17:00 +44°C° 0 mm 3 mps 729 mmHg 21%
    18:00 +42°C° 0 mm 3 mps 729 mmHg 25%
    19:00 +40°C° 0 mm 4 mps 730 mmHg 29%
    20:00 +38°C° 0 mm 4 mps 730 mmHg 34%
    21:00 +37°C° 0 mm 4 mps 731 mmHg 35%
    22:00 +37°C° 0 mm 3 mps 731 mmHg 37%
    23:00 +36°C° 0 mm 3 mps 731 mmHg 39%

    Day after tomorrow, 19 June, Wednesday

    Time Temperature Precipitation Wind Pressure Humidity
    00:00 +35°C° 0 mm 3 mps 731 mmHg 42%
    01:00 +35°C° 0 mm 2 mps 731 mmHg 46%
    02:00 +34°C° 0 mm 2 mps 731 mmHg 49%
    03:00 +33°C° 0 mm 3 mps 731 mmHg 52%
    04:00 +33°C° 0 mm 3 mps 731 mmHg 55%
    05:00 +33°C° 0 mm 4 mps 731 mmHg 57%
    06:00 +33°C° 0 mm 4 mps 731 mmHg 55%
    07:00 +34°C° 0 mm 4 mps 732 mmHg 53%
    08:00 +35°C° 0 mm 5 mps 732 mmHg 51%
    09:00 +37°C° 0 mm 4 mps 732 mmHg 46%
    10:00 +38°C° 0 mm 4 mps 732 mmHg 42%
    11:00 +41°C° 0 mm 4 mps 731 mmHg 37%
    12:00 +42°C° 0 mm 3 mps 731 mmHg 33%
    13:00 +42°C° 0 mm 2 mps 730 mmHg 29%
    14:00 +43°C° 0 mm 2 mps 730 mmHg 26%
    15:00 +42°C° 0.5 mm 3 mps 729 mmHg 31%
    16:00 +38°C° 0.5 mm 4 mps 729 mmHg 37%
    17:00 +36°C° 0.5 mm 5 mps 728 mmHg 42%
    18:00 +35°C° 0.7 mm 4 mps 729 mmHg 46%
    19:00 +34°C° 0.7 mm 2 mps 730 mmHg 49%
    20:00 +31°C° 0.7 mm 1 mps 731 mmHg 52%
    21:00 +30°C° 1.3 mm 3 mps 731 mmHg 63%
    22:00 +29°C° 1.3 mm 5 mps 731 mmHg 73%
    23:00 +27°C° 1.3 mm 7 mps 732 mmHg 83%

    20 June, Thursday

    Time Temperature Precipitation Wind Pressure Humidity
    00:00 +27°C° 0.1 mm 7 mps 731 mmHg 79%
    01:00 +27°C° 0.1 mm 7 mps 731 mmHg 76%
    02:00 +27°C° 0.1 mm 7 mps 730 mmHg 73%
    03:00 +26°C° 0 mm 5 mps 730 mmHg 72%
    04:00 +26°C° 0 mm 4 mps 730 mmHg 71%
    05:00 +26°C° 0 mm 3 mps 730 mmHg 69%
    06:00 +28°C° 0 mm 3 mps 731 mmHg 63%
    07:00 +30°C° 0 mm 3 mps 731 mmHg 57%
    08:00 +31°C° 0 mm 2 mps 732 mmHg 51%
    09:00 +34°C° 0 mm 2 mps 732 mmHg 45%
    10:00 +37°C° 0 mm 2 mps 732 mmHg 39%
    11:00 +39°C° 0 mm 2 mps 732 mmHg 34%
    12:00 +40°C° 0 mm 2 mps 731 mmHg 31%
    13:00 +40°C° 0 mm 2 mps 731 mmHg 28%
    14:00 +41°C° 0 mm 2 mps 730 mmHg 26%
    15:00 +41°C° 0 mm 2 mps 730 mmHg 26%
    16:00 +41°C° 0 mm 2 mps 730 mmHg 26%
    17:00 +40°C° 0 mm 2 mps 730 mmHg 27%
    18:00 +39°C° 0 mm 2 mps 730 mmHg 30%
    19:00 +36°C° 0 mm 1 mps 730 mmHg 33%
    20:00 +35°C° 0 mm 1 mps 731 mmHg 36%
    21:00 +35°C° 0 mm 2 mps 731 mmHg 41%
    22:00 +34°C° 0 mm 3 mps 731 mmHg 45%
    23:00 +33°C° 0 mm 4 mps 731 mmHg 49%

    21 June, Friday

    Time Temperature Precipitation Wind Pressure Humidity
    00:00 +33°C° 0 mm 4 mps 731 mmHg 51%
    01:00 +32°C° 0 mm 4 mps 730 mmHg 54%
    02:00 +32°C° 0 mm 4 mps 730 mmHg 56%
    03:00 +30°C° 0 mm 4 mps 730 mmHg 59%
    04:00 +29°C° 0 mm 5 mps 730 mmHg 62%
    05:00 +29°C° 0 mm 5 mps 730 mmHg 65%
    06:00 +30°C° 0 mm 5 mps 731 mmHg 61%
    07:00 +32°C° 0 mm 5 mps 732 mmHg 56%
    08:00 +34°C° 0 mm 5 mps 732 mmHg 52%
    09:00 +36°C° 0 mm 5 mps 732 mmHg 46%
    10:00 +37°C° 0 mm 4 mps 732 mmHg 41%
    11:00 +40°C° 0 mm 4 mps 732 mmHg 35%
    12:00 +40°C° 0 mm 3 mps 731 mmHg 32%
    13:00 +42°C° 0 mm 3 mps 730 mmHg 29%
    14:00 +42°C° 0 mm 2 mps 730 mmHg 26%
    15:00 +42°C° 0 mm 2 mps 729 mmHg 26%
    16:00 +41°C° 0 mm 1 mps 729 mmHg 25%
    17:00 +41°C° 0 mm 1 mps 729 mmHg 25%
    18:00 +40°C° 0 mm 1 mps 729 mmHg 29%
    19:00 +38°C° 0 mm 2 mps 730 mmHg 33%
    20:00 +37°C° 0 mm 3 mps 730 mmHg 37%
    21:00 +36°C° 0 mm 3 mps 730 mmHg 40%
    22:00 +35°C° 0 mm 3 mps 730 mmHg 44%
    23:00 +34°C° 0 mm 4 mps 730 mmHg 48%

    22 June, Saturday

    Time Temperature Precipitation Wind Pressure Humidity
    00:00 +34°C° 0 mm 4 mps 730 mmHg 52%
    01:00 +33°C° 0 mm 4 mps 730 mmHg 55%
    02:00 +32°C° 0 mm 4 mps 730 mmHg 59%
    03:00 +32°C° 0 mm 4 mps 730 mmHg 60%
    04:00 +31°C° 0 mm 3 mps 731 mmHg 62%
    05:00 +30°C° 0 mm 3 mps 731 mmHg 64%
    06:00 +31°C° 0 mm 3 mps 731 mmHg 60%
    07:00 +33°C° 0 mm 3 mps 732 mmHg 56%
    08:00 +34°C° 0 mm 4 mps 732 mmHg 53%
    09:00 +36°C° 0 mm 4 mps 732 mmHg 46%
    10:00 +38°C° 0 mm 4 mps 731 mmHg 39%
    11:00 +41°C° 0 mm 4 mps 731 mmHg 33%
    12:00 +42°C° 0 mm 4 mps 730 mmHg 29%
    13:00 +42°C° 0 mm 3 mps 730 mmHg 26%
    14:00 +43°C° 0 mm 3 mps 729 mmHg 22%
    15:00 +42°C° 0 mm 2 mps 729 mmHg 22%
    16:00 +42°C° 0 mm 1 mps 728 mmHg 21%
    17:00 +42°C° 0 mm 1 mps 728 mmHg 20%
    18:00 +41°C° 0 mm 1 mps 728 mmHg 23%
    19:00 +39°C° 0 mm 1 mps 729 mmHg 25%
    20:00 +37°C° 0 mm 2 mps 729 mmHg 28%
    21:00 +37°C° 0 mm 3 mps 729 mmHg 31%
    22:00 +36°C° 0 mm 3 mps 729 mmHg 35%
    23:00 +35°C° 0 mm 4 mps 729 mmHg 39%
    Show more